Wahpeton, MN

10:26 PM CST on November 16, 2019 (GMT -0600)
Stern

Weather History for KBWP - September, 2019

Change the Weather History Date:

Sunday, September 22, 2019

  Actual Average (WUND) Record (WUND)
Temperature  
Mean Temperature 59 °F -  
Max Temperature 68 °F - - (-1)
Min Temperature 50 °F - - (-1)
Degree Days  
Heating Degree Days 6    
Growing Degree Days 9 (Base 50)    
Moisture  
Dew Point 47 °F    
Average Humidity 71    
Maximum Humidity 94    
Minimum Humidity 35    
Precipitation  
Precipitation 0.00 in - - ()
Sea Level Pressure  
Sea Level Pressure 29.87 in    
Wind  
Wind Speed 8 mph ()    
Max Wind Speed 15 mph    
Max Gust Speed 20 mph    
Visibility 10.0 miles    
Events      
Averages and records for this station are not official NWS values.
T = Trace of Precipitation, MM = Missing Value Source: Averaged Metar Reports

Daily Weather History Graph

Daily Weather History Graph

Search for Another Location

Airport or City:

Astronomy

Sep. 22, 2019 Rise Set
Actual Time 7:13 AM CDT 7:24 PM CDT
Civil Twilight 6:43 AM CDT 7:54 PM CDT
Nautical Twilight 6:07 AM CDT 8:29 PM CDT
Astronomical Twilight 5:31 AM CDT 9:05 PM CDT
Moon No Moon Rise 3:42 PM CDT (9/22)
Length of Visible Light 13h 11m
Length of Day
12h 11m
Last Quarter, 44% of the Moon is Illuminated
Sep 22
Last Quarter
Sep 28
New
Oct 5
First Quarter
Oct 13
Full
Oct 21
Last Quarter

Hourly Weather History & Observations

Time (CDT) Temp. Dew Point Humidity Pressure Visibility Wind Dir Wind Speed Gust Speed Precip Events Conditions
12:15 AM 59.0 °F 53.6 °F 82% 29.82 in 10.0 mi West 13.8 mph - N/A   Unknown
12:35 AM 59.0 °F 51.8 °F 77% 29.83 in 10.0 mi WNW 15.0 mph - N/A   Unknown
12:55 AM 59.0 °F 51.8 °F 77% 29.84 in 10.0 mi WNW 10.4 mph - N/A   Unknown
1:15 AM 55.4 °F 51.8 °F 88% 29.85 in 10.0 mi WNW 6.9 mph - N/A   Unknown
1:35 AM 55.4 °F 50.0 °F 82% 29.85 in 10.0 mi WNW 6.9 mph - N/A   Unknown
1:55 AM 53.6 °F 50.0 °F 88% 29.85 in 10.0 mi WNW 8.1 mph - N/A   Unknown
2:15 AM 53.6 °F 50.0 °F 88% 29.85 in 10.0 mi WNW 9.2 mph - N/A   Unknown
2:35 AM 53.6 °F 50.0 °F 88% 29.85 in 10.0 mi WNW 8.1 mph - N/A   Unknown
2:55 AM 53.6 °F 50.0 °F 88% 29.85 in 10.0 mi WNW 6.9 mph - N/A   Unknown
3:15 AM 51.8 °F 50.0 °F 94% 29.87 in 10.0 mi West 5.8 mph - N/A   Unknown
3:35 AM 51.8 °F 48.2 °F 88% 29.88 in 10.0 mi WSW 5.8 mph - N/A   Unknown
3:55 AM 50.0 °F 48.2 °F 94% 29.87 in 10.0 mi WNW 5.8 mph - N/A   Unknown
4:15 AM 51.8 °F 48.2 °F 88% 29.87 in 10.0 mi WNW 5.8 mph - N/A   Unknown
4:35 AM 50.0 °F 48.2 °F 94% 29.88 in 10.0 mi WNW 3.5 mph - N/A   Unknown
4:55 AM 50.0 °F 48.2 °F 94% 29.87 in 10.0 mi WNW 5.8 mph - N/A   Unknown
5:15 AM 51.8 °F 48.2 °F 88% 29.88 in 10.0 mi West 8.1 mph - N/A   Unknown
5:35 AM 51.8 °F 48.2 °F 88% 29.89 in 10.0 mi West 8.1 mph - N/A   Unknown
5:55 AM 51.8 °F 48.2 °F 88% 29.90 in 10.0 mi West 5.8 mph - N/A   Unknown
6:15 AM 50.0 °F 48.2 °F 94% 29.89 in 10.0 mi West 4.6 mph - N/A   Unknown
6:35 AM 50.0 °F 46.4 °F 87% 29.88 in 10.0 mi WNW 4.6 mph - N/A   Unknown
6:55 AM 50.0 °F 46.4 °F 87% 29.88 in 10.0 mi WNW 6.9 mph - N/A   Unknown
7:15 AM 50.0 °F 48.2 °F 94% 29.90 in 10.0 mi West 5.8 mph - N/A   Unknown
7:35 AM 51.8 °F 48.2 °F 88% 29.89 in 10.0 mi WNW 5.8 mph - N/A   Unknown
7:55 AM 51.8 °F 50.0 °F 94% 29.90 in 10.0 mi West 5.8 mph - N/A   Unknown
8:15 AM 51.8 °F 50.0 °F 94% 29.91 in 10.0 mi West 4.6 mph - N/A   Unknown
8:35 AM 53.6 °F 50.0 °F 88% 29.91 in 10.0 mi West 6.9 mph - N/A   Unknown
8:55 AM 53.6 °F 50.0 °F 88% 29.91 in 10.0 mi West 5.8 mph - N/A   Unknown
9:15 AM 53.6 °F 50.0 °F 88% 29.91 in 10.0 mi West 9.2 mph - N/A   Unknown
9:35 AM 53.6 °F 50.0 °F 88% 29.91 in 10.0 mi West 8.1 mph - N/A   Unknown
9:55 AM 55.4 °F 50.0 °F 82% 29.89 in 10.0 mi West 6.9 mph - N/A   Unknown
10:15 AM 55.4 °F 50.0 °F 82% 29.91 in 10.0 mi West 6.9 mph - N/A   Unknown
10:35 AM 55.4 °F 50.0 °F 82% 29.89 in 10.0 mi West 8.1 mph - N/A   Unknown
10:55 AM 59.0 °F 51.8 °F 77% 29.89 in 10.0 mi West 6.9 mph - N/A   Unknown
11:15 AM 59.0 °F 50.0 °F 72% 29.90 in 10.0 mi West 6.9 mph - N/A   Unknown
11:35 AM 59.0 °F 50.0 °F 72% 29.90 in 10.0 mi West 6.9 mph - N/A   Unknown
11:55 AM 60.8 °F 50.0 °F 68% 29.90 in 10.0 mi West 6.9 mph - N/A   Unknown
12:15 PM 62.6 °F 50.0 °F 63% 29.89 in 10.0 mi West 9.2 mph - N/A   Unknown
12:35 PM 62.6 °F 50.0 °F 63% 29.88 in 10.0 mi West 9.2 mph - N/A   Unknown
12:55 PM 64.4 °F 46.4 °F 52% 29.87 in 10.0 mi WNW 9.2 mph - N/A   Unknown
1:15 PM 66.2 °F 46.4 °F 49% 29.87 in 10.0 mi WNW 10.4 mph 17.3 mph N/A   Unknown
1:35 PM 68.0 °F 44.6 °F 43% 29.87 in 10.0 mi WNW 8.1 mph - N/A   Unknown
1:55 PM 64.4 °F 42.8 °F 45% 29.87 in 10.0 mi West 11.5 mph - N/A   Unknown
2:15 PM 64.4 °F 42.8 °F 45% 29.86 in 10.0 mi WNW 8.1 mph 17.3 mph N/A   Unknown
2:35 PM 66.2 °F 42.8 °F 43% 29.86 in 10.0 mi NW 9.2 mph - N/A   Unknown
2:55 PM 68.0 °F 42.8 °F 40% 29.85 in 10.0 mi NW 11.5 mph 16.1 mph N/A   Unknown
3:15 PM 66.2 °F 42.8 °F 43% 29.85 in 10.0 mi NW 13.8 mph 19.6 mph N/A   Unknown
3:35 PM 68.0 °F 42.8 °F 40% 29.84 in 10.0 mi WNW 13.8 mph - N/A   Unknown
3:55 PM 68.0 °F 39.2 °F 35% 29.84 in 10.0 mi WNW 12.7 mph - N/A   Unknown
4:15 PM 68.0 °F 41.0 °F 37% 29.84 in 10.0 mi WNW 12.7 mph - N/A   Unknown
4:35 PM 68.0 °F 39.2 °F 35% 29.84 in 10.0 mi West 11.5 mph - N/A   Unknown
4:55 PM 68.0 °F 41.0 °F 37% 29.85 in 10.0 mi NW 13.8 mph 17.3 mph N/A   Unknown
5:15 PM 68.0 °F 42.8 °F 40% 29.85 in 10.0 mi NW 11.5 mph - N/A   Unknown
5:35 PM 68.0 °F 42.8 °F 40% 29.85 in 10.0 mi WNW 15.0 mph - N/A   Unknown
5:55 PM 68.0 °F 41.0 °F 37% 29.85 in 10.0 mi WNW 10.4 mph - N/A   Unknown
6:15 PM 68.0 °F 41.0 °F 37% 29.85 in 10.0 mi NW 11.5 mph - N/A   Unknown
6:35 PM 66.2 °F 41.0 °F 40% 29.85 in 10.0 mi NW 8.1 mph - N/A   Unknown
6:55 PM 62.6 °F 44.6 °F 52% 29.86 in 10.0 mi NW 5.8 mph - N/A   Unknown
7:15 PM 62.6 °F 42.8 °F 48% 29.86 in 10.0 mi NW 4.6 mph - N/A   Unknown
7:35 PM 60.8 °F 42.8 °F 52% 29.86 in 10.0 mi NNW 3.5 mph - N/A   Unknown
7:55 PM 59.0 °F 44.6 °F 59% 29.87 in 10.0 mi Calm Calm - N/A   Unknown
8:15 PM 55.4 °F 46.4 °F 72% 29.87 in 10.0 mi Calm Calm - N/A   Unknown
8:35 PM 55.4 °F 46.4 °F 72% 29.87 in 10.0 mi Calm Calm - N/A   Unknown
8:55 PM 55.4 °F 46.4 °F 72% 29.88 in 10.0 mi Calm Calm - N/A   Unknown
9:15 PM 53.6 °F 46.4 °F 77% 29.88 in 10.0 mi Calm Calm - N/A   Unknown
9:35 PM 55.4 °F 48.2 °F 77% 29.88 in 10.0 mi Calm Calm - N/A   Unknown
9:55 PM 53.6 °F 48.2 °F 82% 29.89 in 10.0 mi South 3.5 mph - N/A   Unknown
10:15 PM 53.6 °F 48.2 °F 82% 29.89 in 10.0 mi SSW 4.6 mph - N/A   Unknown
10:35 PM 53.6 °F 46.4 °F 77% 29.90 in 10.0 mi SSW 4.6 mph - N/A   Unknown
10:55 PM 53.6 °F 46.4 °F 77% 29.90 in 10.0 mi SSW 5.8 mph - N/A   Unknown
11:15 PM 53.6 °F 46.4 °F 77% 29.90 in 10.0 mi SSW 6.9 mph - N/A   Unknown
11:35 PM 55.4 °F 46.4 °F 72% 29.90 in 10.0 mi SSW 5.8 mph - N/A   Unknown
11:55 PM 55.4 °F 48.2 °F 77% 29.90 in 10.0 mi SSW 4.6 mph - N/A   Unknown